Temp
-13 -13 -13 -13 -13 -13 -13 -12 -12 -12 -12 -12 -12 -12 -12 -12 -12 -12 -12 -12 -12 -12 -12 -12 -12 -12 -12 -12 -12 -12 -12 -12 -12 -12 -12 -12 -12 -12 -11 -11 -11 -11 -11 -11 -11 -11 -11 -11 -11 -11 -11 -11
-13 -13 -13 -13 -13 -13 -13 -13 -13 -13 -13 -13 -13 -13 -12 -12 -12 -12 -12 -12 -12 -12 -12 -12 -12 -12 -12 -12 -12 -12 -12 -12 -12 -12 -12 -12 -12 -12 -12 -12 -11 -11 -11 -11 -11 -11 -11 -11 -11 -11 -11 -11
-14 -14 -14 -14 -14 -14 -14 -14 -13 -13 -13 -13 -13 -13 -13 -13 -13 -12 -12 -12 -12 -12 -12 -12 -12 -12 -12 -12 -12 -12 -12 -12 -12 -12 -12 -12 -12 -12 -12 -12 -12 -12 -12 -12 -12 -11 -11 -11 -11 -11 -11 -11
-14 -14 -14 -14 -14 -14 -14 -14 -14 -14 -14 -14 -14 -14 -13 -13 -13 -13 -13 -13 -13 -13 -13 -13 -13 -13 -12 -12 -13 -13 -13 -13 -13 -12 -12 -12 -12 -12 -12 -12 -12 -12 -12 -12 -12 -12 -11 -11 -11 -11 -11 -11
-14 -14 -14 -14 -14 -14 -15 -14 -14 -14 -14 -14 -14 -14 -14 -14 -14 -14 -14 -13 -13 -13 -13 -13 -13 -13 -13 -13 -13 -13 -13 -13 -13 -13 -13 -13 -12 -12 -12 -12 -12 -12 -12 -12 -12 -12 -11 -11 -11 -11 -11 -11
-14 -14 -14 -14 -14 -14 -14 -14 -15 -15 -15 -15 -14 -14 -14 -14 -14 -14 -14 -14 -14 -14 -14 -14 -14 -13 -13 -13 -13 -13 -13 -13 -13 -13 -13 -13 -13 -13 -12 -12 -12 -12 -12 -12 -12 -12 -12 -12 -11 -11 -11 -11
-14 -14 -14 -14 -14 -14 -14 -14 -14 -14 -14 -14 -14 -14 -14 -14 -14 -14 -14 -14 -14 -14 -14 -14 -14 -14 -14 -14 -14 -14 -14 -14 -13 -13 -13 -13 -13 -13 -13 -13 -13 -13 -12 -12 -12 -12 -12 -12 -12 -12 -12 -12
-14 -14 -14 -14 -14 -14 -14 -14 -14 -14 -14 -14 -14 -14 -14 -14 -14 -14 -14 -14 -14 -14 -14 -14 -14 -14 -14 -14 -14 -14 -14 -14 -14 -14 -14 -14 -13 -13 -13 -13 -13 -13 -13 -13 -13 -13 -12 -12 -12 -12 -12 -12
-15 -14 -14 -14 -14 -14 -14 -14 -14 -14 -14 -14 -14 -14 -14 -14 -14 -14 -14 -14 -14 -14 -14 -14 -14 -14 -14 -14 -14 -14 -14 -14 -14 -14 -14 -14 -14 -14 -14 -13 -13 -13 -13 -13 -13 -13 -13 -13 -13 -12 -12 -12
-15 -15 -15 -15 -15 -15 -15 -15 -15 -15 -15 -15 -15 -14 -14 -14 -14 -14 -14 -14 -14 -14 -14 -14 -14 -14 -14 -14 -14 -14 -14 -14 -14 -14 -14 -14 -14 -14 -14 -14 -14 -14 -14 -13 -13 -13 -13 -13 -13 -13 -13 -13
-16 -16 -16 -16 -16 -16 -15 -15 -15 -15 -15 -15 -15 -15 -15 -15 -15 -15 -15 -15 -14 -14 -14 -14 -14 -14 -14 -14 -14 -14 -14 -14 -14 -14 -14 -14 -14 -14 -14 -14 -14 -14 -14 -14 -14 -14 -14 -14 -13 -13 -13 -13
-16 -16 -16 -16 -16 -16 -16 -16 -16 -16 -16 -16 -16 -16 -16 -16 -16 -16 -15 -15 -15 -15 -15 -15 -15 -15 -15 -15 -15 -15 -15 -14 -14 -14 -14 -14 -14 -14 -14 -14 -14 -14 -14 -14 -14 -14 -14 -14 -14 -14 -14 -14
-16 -16 -16 -16 -16 -16 -16 -16 -16 -16 -16 -16 -17 -17 -16 -16 -16 -16 -16 -16 -16 -16 -16 -16 -16 -16 -16 -16 -15 -15 -15 -15 -15 -15 -15 -15 -15 -15 -15 -15 -14 -14 -14 -14 -14 -14 -14 -14 -14 -14 -14 -14
-16 -16 -16 -16 -16 -16 -17 -17 -17 -17 -17 -17 -17 -17 -17 -17 -17 -17 -17 -17 -17 -16 -16 -16 -16 -16 -16 -16 -16 -16 -16 -16 -16 -16 -15 -15 -15 -15 -15 -15 -15 -15 -15 -15 -15 -14 -14 -14 -14 -14 -14 -14
-17 -17 -17 -17 -17 -17 -17 -17 -17 -17 -17 -17 -17 -17 -17 -17 -17 -17 -17 -17 -17 -17 -17 -17 -17 -17 -17 -17 -16 -16 -16 -16 -16 -16 -16 -16 -16 -16 -15 -15 -15 -15 -15 -15 -15 -15 -15 -15 -15 -15 -15 -14
-17 -17 -17 -17 -17 -17 -17 -17 -17 -17 -18 -18 -18 -18 -18 -18 -18 -18 -18 -18 -18 -17 -17 -17 -17 -17 -17 -17 -17 -17 -17 -17 -17 -17 -17 -16 -16 -16 -16 -16 -16 -16 -16 -16 -15 -15 -15 -15 -15 -15 -15 -15
-18 -18 -18 -18 -18 -18 -18 -18 -18 -18 -18 -18 -18 -18 -18 -18 -18 -18 -18 -18 -18 -18 -18 -18 -18 -18 -18 -18 -18 -18 -17 -17 -17 -17 -17 -17 -17 -17 -17 -17 -17 -17 -16 -16 -16 -16 -16 -16 -16 -16 -15 -15
-18 -18 -18 -19 -19 -19 -19 -19 -19 -19 -19 -19 -19 -19 -19 -19 -19 -19 -19 -19 -19 -19 -19 -19 -19 -19 -19 -18 -18 -18 -18 -18 -18 -18 -18 -18 -17 -17 -17 -17 -17 -17 -17 -17 -17 -17 -17 -16 -16 -16 -16 -16
-19 -19 -19 -19 -20 -20 -20 -20 -20 -20 -20 -20 -20 -20 -20 -20 -20 -20 -19 -19 -19 -19 -19 -19 -19 -19 -19 -19 -19 -19 -19 -19 -19 -18 -18 -18 -18 -18 -18 -18 -18 -18 -17 -17 -17 -17 -17 -17 -17 -17 -17 -17
-20 -20 -20 -20 -20 -21 -21 -21 -21 -21 -21 -21 -21 -21 -21 -21 -21 -21 -21 -20 -20 -20 -20 -20 -20 -20 -20 -20 -20 -20 -20 -20 -19 -19 -19 -19 -19 -19 -19 -18 -18 -18 -18 -18 -18 -18 -18 -18 -18 -17 -17 -17
-21 -21 -21 -21 -21 -21 -21 -21 -22 -22 -22 -22 -22 -22 -22 -22 -22 -22 -22 -22 -21 -21 -21 -21 -21 -21 -21 -21 -21 -21 -21 -21 -20 -20 -20 -20 -20 -19 -19 -19 -19 -19 -19 -19 -19 -19 -19 -19 -18 -18 -18 -18
-23 -23 -23 -22 -22 -22 -22 -22 -22 -22 -23 -23 -23 -23 -23 -23 -23 -23 -23 -23 -23 -22 -22 -22 -22 -22 -22 -21 -21 -21 -21 -21 -21 -21 -21 -21 -21 -20 -20 -20 -20 -20 -20 -19 -19 -19 -19 -19 -19 -19 -19 -19
-23 -23 -23 -23 -23 -23 -23 -23 -24 -24 -24 -24 -24 -24 -24 -24 -24 -24 -24 -24 -24 -24 -24 -24 -23 -23 -23 -23 -22 -22 -22 -22 -22 -22 -22 -22 -22 -21 -21 -21 -21 -20 -20 -20 -20 -20 -20 -20 -20 -20 -20 -20
-24 -24 -24 -24 -24 -24 -24 -24 -24 -24 -24 -24 -24 -24 -25 -25 -25 -25 -25 -25 -25 -25 -25 -25 -25 -24 -24 -24 -24 -23 -23 -23 -23 -23 -22 -22 -22 -22 -22 -22 -22 -21 -21 -21 -21 -21 -21 -21 -21 -21 -21 -20
-24 -24 -24 -24 -24 -24 -24 -24 -24 -25 -25 -25 -25 -25 -25 -25 -25 -25 -26 -26 -26 -26 -26 -26 -26 -26 -26 -25 -25 -25 -24 -24 -24 -24 -23 -23 -23 -23 -23 -23 -23 -22 -22 -22 -21 -21 -21 -21 -21 -22 -22 -21
-24 -24 -24 -24 -24 -24 -24 -25 -25 -25 -25 -25 -25 -25 -25 -26 -26 -26 -26 -26 -27 -27 -27 -27 -27 -27 -27 -27 -26 -26 -26 -25 -25 -25 -24 -24 -24 -24 -24 -24 -24 -24 -23 -23 -22 -22 -22 -22 -22 -22 -22 -22
-24 -24 -24 -24 -24 -24 -25 -25 -25 -25 -25 -25 -25 -26 -26 -26 -26 -26 -27 -27 -27 -27 -28 -28 -28 -28 -28 -28 -28 -28 -27 -27 -26 -26 -26 -25 -25 -25 -25 -25 -25 -24 -24 -24 -23 -23 -23 -23 -23 -23 -23 -23
-24 -24 -24 -24 -25 -25 -25 -25 -25 -25 -25 -25 -26 -26 -26 -26 -26 -27 -27 -27 -28 -28 -28 -28 -29 -29 -29 -29 -29 -28 -28 -28 -28 -27 -27 -27 -26 -26 -25 -25 -25 -25 -25 -25 -24 -24 -24 -23 -23 -23 -23 -24
-24 -24 -25 -25 -25 -25 -25 -25 -25 -26 -26 -26 -26 -26 -26 -27 -27 -27 -27 -28 -28 -28 -29 -29 -29 -29 -29 -29 -29 -29 -29 -29 -29 -29 -28 -28 -28 -27 -27 -26 -26 -26 -26 -26 -25 -25 -25 -24 -24 -24 -24 -24
-25 -25 -25 -25 -25 -25 -25 -26 -26 -26 -26 -26 -26 -26 -27 -27 -27 -28 -28 -28 -29 -29 -29 -30 -30 -30 -30 -30 -30 -30 -30 -29 -29 -29 -29 -29 -29 -28 -28 -28 -27 -27 -27 -27 -27 -26 -26 -25 -25 -25 -24 -24
-25 -25 -25 -25 -25 -25 -26 -26 -26 -26 -26 -26 -26 -27 -27 -27 -28 -28 -29 -29 -29 -30 -30 -30 -30 -30 -30 -30 -30 -30 -30 -30 -30 -30 -30 -29 -29 -29 -29 -29 -28 -28 -28 -28 -28 -27 -27 -26 -26 -25 -25 -25
Height
5782 5781 5780 5780 5779 5778 5778 5777 5776 5776 5775 5775 5774 5774 5773 5773 5773 5773 5773 5774 5774 5773 5773 5773 5773 5773 5773 5774 5774 5774 5774 5775 5775 5776 5776 5776 5777 5777 5777 5778 5779 5779 5780 5781 5781 5782 5783 5783 5784 5785 5786 5787
5778 5777 5776 5775 5774 5774 5773 5772 5771 5770 5770 5769 5768 5768 5768 5768 5768 5768 5768 5768 5768 5767 5767 5767 5767 5767 5767 5767 5768 5768 5768 5769 5769 5770 5770 5771 5771 5771 5771 5772 5773 5774 5774 5775 5776 5776 5777 5778 5778 5779 5780 5781
5773 5771 5771 5770 5769 5769 5767 5766 5765 5764 5764 5763 5763 5762 5762 5762 5762 5762 5762 5761 5761 5761 5761 5760 5760 5760 5760 5761 5761 5762 5762 5762 5763 5763 5764 5764 5764 5765 5765 5766 5766 5767 5768 5769 5770 5770 5771 5772 5772 5773 5774 5775
5766 5765 5764 5763 5763 5763 5761 5760 5759 5758 5758 5757 5756 5756 5755 5755 5755 5755 5755 5754 5754 5754 5754 5754 5753 5753 5753 5754 5754 5754 5754 5755 5755 5755 5756 5757 5757 5758 5758 5759 5760 5760 5761 5762 5763 5764 5765 5765 5766 5767 5767 5768
5758 5758 5757 5757 5757 5756 5755 5754 5753 5752 5751 5750 5750 5749 5748 5748 5747 5747 5747 5747 5746 5746 5746 5746 5746 5746 5746 5747 5746 5746 5746 5746 5747 5747 5748 5748 5749 5750 5750 5751 5752 5753 5753 5754 5755 5757 5758 5758 5759 5760 5761 5761
5752 5751 5751 5751 5750 5750 5749 5748 5747 5746 5745 5744 5743 5742 5741 5741 5740 5740 5739 5739 5739 5739 5739 5739 5739 5739 5739 5739 5739 5739 5739 5738 5739 5739 5740 5740 5741 5741 5742 5743 5744 5745 5745 5746 5747 5748 5749 5751 5752 5752 5753 5754
5746 5745 5745 5744 5744 5743 5742 5741 5740 5739 5738 5737 5736 5735 5734 5734 5733 5733 5732 5732 5732 5732 5731 5732 5732 5732 5732 5732 5732 5731 5731 5731 5731 5731 5732 5732 5733 5733 5734 5735 5736 5737 5738 5738 5739 5740 5741 5742 5743 5745 5746 5746
5741 5740 5739 5738 5737 5736 5735 5734 5733 5732 5731 5730 5729 5728 5727 5726 5726 5725 5725 5725 5725 5724 5724 5724 5724 5724 5724 5724 5724 5724 5724 5724 5724 5724 5724 5725 5725 5725 5726 5727 5728 5729 5730 5731 5731 5732 5733 5734 5735 5736 5738 5739
5735 5734 5733 5732 5731 5730 5729 5728 5727 5725 5724 5723 5722 5721 5720 5719 5719 5718 5718 5717 5717 5717 5717 5717 5716 5716 5716 5716 5716 5716 5716 5716 5716 5716 5716 5717 5717 5718 5718 5719 5720 5721 5722 5723 5723 5724 5725 5725 5726 5728 5729 5731
5728 5727 5726 5724 5723 5723 5722 5722 5720 5719 5718 5716 5715 5714 5713 5712 5712 5711 5710 5710 5710 5709 5709 5709 5709 5708 5708 5707 5707 5708 5708 5708 5708 5708 5708 5708 5709 5709 5710 5710 5711 5712 5713 5714 5715 5716 5716 5717 5718 5719 5721 5722
5721 5720 5718 5717 5715 5714 5713 5713 5712 5711 5710 5709 5708 5706 5705 5705 5704 5703 5703 5702 5702 5701 5701 5701 5700 5700 5700 5699 5698 5698 5698 5698 5699 5699 5699 5700 5700 5700 5701 5701 5702 5703 5704 5705 5706 5707 5708 5709 5710 5711 5712 5713
5714 5713 5712 5710 5709 5707 5705 5704 5703 5702 5701 5700 5699 5698 5697 5696 5695 5694 5694 5693 5692 5692 5692 5691 5691 5691 5691 5690 5689 5689 5689 5688 5689 5689 5690 5690 5691 5691 5691 5692 5693 5694 5694 5695 5696 5697 5698 5699 5701 5702 5703 5705
5706 5705 5704 5702 5701 5699 5698 5696 5694 5693 5692 5691 5690 5689 5688 5687 5686 5685 5684 5683 5683 5682 5681 5681 5681 5681 5680 5680 5679 5679 5678 5679 5678 5678 5679 5680 5680 5681 5681 5681 5682 5683 5684 5685 5686 5687 5688 5689 5691 5692 5694 5695
5697 5696 5695 5693 5692 5690 5689 5687 5686 5684 5683 5682 5681 5679 5678 5677 5676 5675 5674 5673 5672 5671 5671 5670 5670 5670 5670 5669 5669 5668 5668 5668 5668 5668 5668 5668 5669 5670 5671 5671 5672 5673 5673 5674 5675 5676 5678 5679 5680 5682 5683 5685
5688 5687 5686 5684 5683 5681 5679 5678 5676 5675 5674 5672 5671 5670 5669 5668 5667 5666 5664 5663 5662 5661 5660 5659 5659 5659 5658 5658 5657 5657 5657 5657 5657 5657 5657 5658 5658 5659 5660 5661 5661 5662 5663 5663 5664 5666 5667 5668 5670 5671 5672 5674
5678 5677 5676 5675 5673 5671 5670 5668 5667 5666 5664 5662 5661 5660 5659 5658 5657 5656 5655 5653 5652 5651 5650 5649 5648 5648 5647 5646 5646 5646 5646 5646 5646 5646 5646 5646 5647 5648 5648 5649 5650 5651 5652 5652 5653 5654 5656 5657 5659 5660 5662 5663
5669 5667 5666 5665 5663 5661 5660 5658 5657 5656 5654 5653 5651 5650 5648 5647 5646 5645 5645 5643 5642 5641 5640 5639 5638 5637 5636 5635 5634 5634 5634 5634 5634 5635 5635 5635 5636 5636 5637 5637 5638 5639 5640 5641 5642 5643 5644 5646 5648 5649 5650 5652
5659 5657 5656 5654 5653 5651 5649 5648 5646 5645 5643 5642 5641 5639 5638 5636 5635 5634 5633 5632 5631 5630 5629 5629 5628 5626 5625 5624 5623 5622 5622 5622 5622 5623 5623 5624 5625 5625 5625 5626 5626 5627 5628 5629 5631 5632 5633 5634 5636 5637 5639 5641
5650 5648 5646 5644 5642 5641 5639 5637 5635 5634 5632 5631 5630 5628 5627 5625 5624 5622 5621 5620 5619 5618 5617 5617 5616 5615 5614 5613 5611 5610 5610 5610 5610 5610 5611 5611 5612 5613 5613 5614 5615 5615 5616 5617 5619 5620 5621 5622 5624 5625 5627 5629
5642 5640 5637 5635 5633 5631 5629 5627 5625 5623 5621 5619 5618 5617 5615 5613 5612 5610 5609 5608 5607 5606 5605 5604 5604 5602 5602 5601 5600 5599 5598 5597 5597 5598 5598 5598 5598 5600 5601 5601 5602 5602 5604 5606 5607 5608 5609 5610 5612 5614 5616 5617
5636 5633 5630 5627 5625 5622 5620 5617 5615 5613 5610 5608 5607 5605 5603 5601 5600 5598 5597 5595 5594 5593 5592 5591 5590 5589 5589 5588 5587 5586 5585 5584 5584 5585 5586 5585 5585 5586 5587 5588 5588 5589 5590 5592 5595 5596 5597 5598 5599 5602 5603 5604
5630 5627 5624 5621 5618 5615 5613 5610 5607 5604 5601 5599 5596 5594 5592 5590 5588 5586 5584 5583 5582 5581 5579 5577 5577 5576 5575 5574 5574 5572 5571 5571 5570 5571 5572 5573 5573 5572 5573 5574 5575 5576 5577 5579 5581 5583 5584 5585 5587 5589 5590 5591
5625 5622 5619 5616 5613 5610 5607 5603 5600 5597 5594 5591 5588 5584 5581 5579 5576 5574 5573 5571 5570 5568 5566 5564 5563 5562 5561 5560 5559 5558 5557 5557 5556 5556 5557 5558 5559 5559 5558 5560 5560 5562 5564 5566 5568 5570 5571 5573 5574 5576 5577 5578
5619 5615 5612 5609 5606 5602 5599 5596 5592 5589 5585 5583 5580 5576 5573 5570 5566 5563 5561 5559 5557 5555 5553 5552 5550 5549 5547 5546 5545 5544 5542 5542 5542 5542 5543 5543 5544 5544 5544 5544 5545 5546 5549 5552 5554 5556 5558 5560 5561 5562 5563 5564
5612 5609 5605 5602 5599 5595 5591 5587 5584 5580 5576 5573 5570 5567 5564 5560 5556 5553 5551 5548 5546 5543 5541 5539 5537 5536 5534 5532 5531 5529 5528 5528 5527 5527 5528 5529 5529 5529 5530 5530 5529 5530 5533 5537 5540 5542 5545 5547 5547 5548 5549 5550
5606 5603 5599 5596 5592 5588 5584 5580 5577 5573 5568 5565 5561 5557 5554 5550 5546 5543 5540 5537 5534 5531 5529 5527 5525 5523 5521 5519 5517 5515 5514 5513 5513 5513 5513 5514 5514 5515 5516 5516 5515 5515 5517 5520 5523 5527 5531 5534 5533 5534 5536 5537
5600 5597 5593 5590 5586 5583 5579 5574 5570 5566 5562 5558 5553 5549 5545 5540 5536 5532 5529 5525 5522 5520 5518 5515 5513 5510 5508 5506 5504 5502 5500 5499 5498 5498 5498 5498 5499 5501 5502 5502 5501 5501 5501 5503 5507 5510 5514 5518 5519 5521 5522 5524
5594 5590 5587 5583 5579 5576 5572 5568 5564 5559 5555 5550 5546 5542 5537 5531 5526 5522 5517 5513 5510 5507 5505 5502 5500 5498 5495 5493 5491 5488 5487 5486 5485 5484 5484 5483 5484 5486 5487 5488 5488 5488 5486 5487 5491 5493 5496 5501 5504 5507 5509 5511
5587 5584 5580 5576 5572 5568 5564 5560 5555 5551 5547 5542 5537 5533 5528 5523 5518 5512 5507 5502 5499 5495 5492 5489 5487 5484 5482 5479 5477 5475 5474 5474 5473 5471 5470 5469 5469 5470 5471 5473 5475 5475 5473 5473 5475 5477 5481 5485 5487 5491 5495 5498
5580 5577 5573 5569 5565 5561 5557 5552 5547 5542 5538 5533 5529 5524 5519 5514 5509 5503 5497 5492 5488 5484 5481 5477 5475 5472 5468 5466 5463 5461 5461 5460 5459 5459 5457 5456 5456 5456 5455 5457 5460 5461 5460 5460 5460 5461 5465 5468 5470 5475 5480 5481
5573 5569 5565 5561 5557 5553 5548 5544 5539 5534 5529 5525 5520 5515 5510 5505 5500 5495 5488 5482 5478 5473 5470 5466 5463 5460 5457 5453 5450 5448 5447 5446 5445 5445 5444 5443 5442 5442 5442 5443 5445 5446 5447 5447 5446 5446 5450 5452 5454 5459 5464 5465
Wind_Speed
45 46 47 47 48 49 49 50 51 52 52 52 52 52 53 54 54 55 55 55 55 55 55 55 55 55 56 56 57 57 57 58 58 58 58 58 58 58 59 59 58 58 58 57 57 57 56 56 55 55 55 54
45 45 46 46 47 48 48 49 50 51 51 51 52 52 52 53 54 55 55 56 56 56 56 57 57 57 58 58 59 59 60 60 60 60 60 60 61 61 61 61 61 61 60 60 59 59 59 58 58 57 57 57
45 46 46 47 47 48 49 50 50 51 52 52 52 53 53 53 54 54 55 55 56 57 57 58 58 59 59 59 60 61 61 62 62 62 62 62 62 63 63 63 63 63 63 62 62 62 61 61 61 60 60 59
46 47 48 48 49 49 50 51 52 53 53 53 54 54 54 54 55 55 56 56 57 57 57 58 59 59 60 60 61 62 62 63 63 64 64 64 65 65 65 65 65 65 65 65 65 64 64 64 63 63 63 62
50 50 51 51 51 51 52 53 53 54 55 55 56 56 56 57 57 57 58 58 58 58 58 58 59 59 60 61 61 62 63 64 65 65 66 66 67 67 67 67 67 67 67 67 67 67 67 66 66 65 65 65
54 54 55 55 55 55 55 56 56 57 57 58 58 59 60 60 60 61 61 61 61 61 61 61 61 61 61 61 62 63 64 65 66 66 67 68 68 69 69 69 69 69 69 69 69 69 69 69 68 68 68 67
58 59 59 59 59 59 59 60 60 60 61 61 62 62 63 63 64 64 64 64 64 64 64 64 64 63 63 63 64 64 65 65 66 67 68 68 69 70 70 71 71 71 71 71 71 71 71 71 71 70 70 70
61 62 63 63 64 64 64 64 64 65 65 65 66 66 67 67 67 68 68 68 68 68 68 68 68 67 67 67 67 67 67 67 68 68 69 70 70 71 72 72 72 72 72 72 72 72 73 73 73 72 72 72
64 65 65 66 67 67 67 68 68 69 69 69 70 70 71 71 71 72 72 72 72 72 72 71 71 71 71 71 71 71 71 71 71 71 71 72 72 72 73 73 73 74 74 74 74 74 74 74 74 74 74 73
66 66 67 68 69 69 70 70 70 71 72 72 73 73 74 74 75 75 75 75 75 75 75 75 75 75 75 75 75 75 74 74 74 74 75 75 75 75 75 75 75 75 75 75 75 75 75 75 75 75 75 75
65 66 67 68 69 70 71 71 72 72 73 74 74 75 76 76 77 77 77 78 78 78 78 78 78 78 78 78 78 78 78 78 78 78 78 78 78 78 78 78 78 78 78 78 77 77 77 77 77 77 77 76
67 67 67 68 69 69 71 71 72 73 73 74 75 75 76 77 78 79 79 80 80 80 80 80 80 80 80 80 80 81 81 81 81 81 81 81 81 81 81 81 81 81 80 80 80 80 80 79 79 79 78 78
69 69 69 70 70 71 71 72 73 74 74 74 75 76 76 77 78 79 80 81 82 82 83 83 83 83 83 83 83 83 83 83 83 84 83 83 83 83 83 83 83 83 83 83 83 83 82 82 82 81 81 80
70 71 71 72 72 72 73 73 74 75 75 76 76 77 78 78 79 79 80 81 82 83 84 85 85 85 85 86 86 86 86 86 86 86 86 86 86 86 85 85 85 85 85 85 85 85 85 84 84 84 83 83
72 72 73 73 74 74 75 75 76 76 77 77 78 78 79 79 80 81 81 82 83 84 84 85 86 86 87 87 88 88 88 88 89 88 88 88 88 88 88 88 88 88 87 87 87 87 87 86 86 86 85 85
74 74 75 75 75 76 77 77 78 78 79 79 79 80 80 80 81 82 82 83 84 85 86 86 87 88 88 88 89 89 89 90 90 91 91 91 91 91 90 90 90 90 90 90 90 89 89 89 88 88 88 87
75 76 77 77 78 78 79 79 80 80 81 81 82 82 83 83 83 83 83 84 84 85 86 87 88 89 89 90 90 91 91 91 91 92 92 93 93 93 93 93 92 92 92 92 92 92 92 91 90 90 90 89
76 77 77 78 79 79 80 81 81 82 83 83 84 84 85 85 86 86 86 86 86 86 87 87 88 89 90 91 92 92 93 93 93 93 93 94 94 94 95 95 95 95 94 94 94 94 94 93 93 92 92 91
72 74 75 76 77 78 79 80 81 82 83 84 85 86 86 87 87 88 88 89 89 89 89 89 89 89 90 91 92 93 94 94 95 95 95 95 95 95 96 96 96 96 96 96 95 95 95 95 95 95 94 93
66 68 69 71 73 74 75 77 78 79 80 82 83 84 86 87 88 89 90 91 91 91 91 92 92 92 92 92 93 93 94 95 95 96 96 96 97 97 97 97 97 97 97 97 96 96 96 96 96 95 95 95
57 59 61 63 65 67 69 71 73 75 76 78 80 81 83 84 86 88 90 91 92 93 93 94 94 94 94 94 94 95 95 95 96 96 97 97 98 98 98 98 98 98 98 98 98 97 97 97 96 96 96 96
50 51 53 54 56 58 60 62 64 66 69 72 74 77 79 81 83 84 86 88 90 92 94 95 96 96 96 96 97 97 97 97 97 98 98 98 98 99 99 99 99 99 99 99 99 98 98 97 97 97 97 97
48 48 49 50 51 52 54 55 57 58 61 63 66 69 73 76 79 81 83 84 86 88 90 92 94 96 97 98 99 99 99 99 99 99 99 99 99 99 100 100 100 100 100 100 99 99 99 98 98 97 97 97
49 50 51 51 52 53 54 55 55 57 58 59 61 63 66 69 73 77 80 82 84 85 86 88 90 92 94 97 98 100 100 101 101 101 100 100 100 100 100 101 102 102 102 101 100 100 99 99 99 98 98 98
50 51 53 54 55 56 57 58 59 60 60 61 62 63 64 66 69 72 76 79 81 83 84 85 86 88 89 92 94 97 99 101 102 102 102 102 101 101 101 101 102 103 104 103 102 101 100 99 99 99 98 99
52 53 54 55 57 58 59 60 61 62 63 64 65 66 67 68 69 71 73 75 78 81 82 84 85 86 87 88 90 92 95 97 100 102 103 103 103 102 102 101 101 102 104 104 104 104 102 100 100 99 99 99
54 55 56 57 58 59 60 61 63 64 65 66 68 69 70 71 72 73 74 75 77 79 80 82 83 84 85 86 87 88 90 92 95 98 100 102 103 104 103 102 102 102 103 103 104 104 104 103 101 100 99 99
55 56 57 58 60 61 62 63 64 65 67 68 69 71 72 73 75 76 77 77 78 79 80 81 82 83 84 85 86 87 88 89 90 93 95 98 101 103 103 103 103 102 103 103 103 103 103 104 104 101 100 99
57 58 59 60 61 62 63 64 65 67 68 70 71 72 73 75 76 77 79 79 80 80 81 82 83 84 84 85 86 86 87 87 88 89 91 93 95 98 100 102 102 102 102 103 103 104 103 103 103 102 102 99
58 59 60 61 62 63 64 65 66 68 69 71 72 73 74 76 77 78 79 80 81 81 81 82 83 83 84 85 85 86 86 86 86 87 88 90 92 93 96 98 99 100 101 102 102 103 103 103 103 102 102 101
60 61 62 63 64 65 65 66 67 69 70 72 73 74 75 76 77 78 79 80 81 81 81 81 81 82 82 83 84 84 84 84 85 85 86 87 88 90 92 94 95 97 98 99 100 102 103 103 104 103 102 101
Wind_Direction
272 272 272 272 271 271 270 270 270 269 269 269 268 268 267 267 266 266 265 265 264 263 262 261 260 259 257 256 255 255 254 253 253 252 252 252 251 251 251 250 250 250 249 249 248 248 248 248 249 249 249 249
273 273 273 272 272 272 272 272 271 270 270 270 269 269 268 267 267 266 265 265 264 263 263 262 261 259 258 257 256 255 255 254 254 253 252 252 252 252 251 251 250 250 250 250 250 250 250 250 250 250 250 251
272 272 272 271 271 271 271 271 271 271 270 270 270 269 269 268 267 266 265 264 263 262 262 261 261 260 259 258 257 256 256 255 255 254 254 253 253 253 253 252 252 251 251 251 251 251 251 251 251 252 252 252
270 269 269 269 269 269 270 270 270 270 270 270 270 269 269 268 267 266 265 264 263 262 261 261 260 260 259 258 258 257 257 256 256 255 255 255 254 254 254 254 253 253 252 252 252 252 252 252 252 253 253 253
268 267 267 267 267 267 267 268 268 268 269 269 269 268 268 267 267 266 265 264 264 263 262 261 261 260 259 259 258 258 258 257 257 256 256 256 255 255 255 255 254 254 254 254 253 253 253 253 253 253 254 254
268 268 267 267 266 266 266 266 266 266 266 267 267 267 266 266 266 265 265 265 264 263 263 262 261 261 260 259 259 258 258 257 257 257 256 256 256 256 255 255 255 255 255 255 255 254 254 253 254 254 254 254
269 268 268 267 267 266 266 265 265 265 265 265 265 265 265 265 265 264 264 264 264 264 263 263 262 261 261 260 260 259 258 258 257 257 257 256 256 256 256 255 255 255 255 255 255 255 255 254 254 254 254 255
270 269 269 268 268 267 267 266 265 265 264 264 263 263 263 263 263 263 263 263 263 263 263 263 262 262 261 260 260 260 259 259 258 258 257 257 256 256 256 256 256 255 255 255 255 255 256 256 255 255 255 255
272 272 271 270 269 269 268 268 268 267 267 266 265 265 264 264 263 263 263 263 262 262 262 262 262 262 262 261 260 259 259 259 259 258 258 257 257 257 256 256 256 256 256 256 256 256 256 256 256 256 256 255
274 274 273 273 272 271 270 270 269 269 268 268 268 267 267 266 266 265 265 265 264 264 263 263 262 262 262 262 261 260 259 259 258 258 258 258 258 257 257 257 256 256 256 256 256 256 256 256 256 256 256 256
273 273 273 273 273 272 272 271 270 270 269 269 268 268 268 268 267 267 267 266 266 265 265 264 264 263 262 262 262 261 261 260 259 258 258 258 258 258 257 257 257 256 256 256 256 256 256 256 256 256 256 256
273 272 272 272 272 272 271 271 271 270 270 269 269 269 268 268 267 267 267 266 266 266 265 265 264 264 263 263 262 262 261 261 260 259 259 258 258 258 258 258 257 257 257 257 256 256 256 256 256 255 255 256
274 274 273 272 272 271 271 271 270 270 270 269 269 269 268 268 267 267 267 266 266 265 265 264 264 264 263 263 262 262 262 261 261 260 260 259 258 258 258 258 258 257 257 257 257 257 256 256 256 256 256 255
275 275 274 274 273 273 272 272 271 271 270 269 269 268 268 267 267 267 266 266 266 265 265 264 264 263 262 262 262 261 261 261 260 260 260 260 259 258 258 258 258 257 257 257 257 257 257 257 256 256 256 256
276 276 275 274 274 273 273 272 272 272 271 271 270 269 268 268 267 266 266 265 265 265 264 264 264 263 262 262 261 261 260 260 260 260 260 259 259 259 258 258 258 258 257 257 257 257 257 257 257 256 256 256
278 277 276 276 275 274 273 273 272 272 271 271 270 270 269 268 268 267 266 266 265 265 264 264 263 263 263 262 262 261 260 260 259 259 259 259 259 258 258 258 258 257 257 257 257 257 257 257 256 256 256 256
280 279 278 277 277 276 275 274 273 273 272 271 271 270 270 269 268 268 267 266 266 265 265 264 264 263 263 262 262 261 261 260 259 259 258 258 258 257 257 257 257 257 256 256 256 256 256 256 256 256 256 256
282 281 281 280 279 278 277 276 275 274 273 272 272 271 270 270 269 268 267 266 266 265 265 264 264 264 263 263 262 262 261 260 260 259 259 258 257 257 257 256 256 256 256 256 255 255 256 256 255 255 255 255
285 284 283 282 281 280 280 279 278 276 275 274 273 272 271 270 270 269 268 267 266 265 265 264 264 263 263 263 263 262 262 261 261 260 259 259 258 257 257 257 256 256 255 255 255 255 255 255 255 255 254 254
288 287 286 285 284 283 282 281 280 279 278 277 275 274 273 272 271 270 269 268 267 266 265 264 263 263 262 262 262 262 262 261 261 260 260 259 259 258 257 257 256 256 256 255 255 255 255 254 254 254 254 254
295 294 293 291 290 288 287 286 284 283 282 280 279 278 276 275 273 272 270 269 268 267 266 265 264 263 262 262 261 261 261 261 261 260 260 260 259 259 258 258 257 257 256 255 255 254 254 254 254 254 253 253
304 303 302 301 299 298 296 294 293 291 289 287 285 283 281 279 277 276 274 272 271 269 268 267 266 264 263 262 261 261 260 260 260 260 259 259 259 259 258 258 257 257 256 256 256 255 254 254 254 254 253 253
309 309 308 307 307 306 305 304 302 301 298 296 294 291 288 285 282 280 278 276 274 273 271 270 268 267 266 264 263 262 261 260 259 259 259 259 258 258 258 257 257 256 256 256 256 255 255 254 254 254 253 253
311 311 310 310 310 310 309 309 308 307 306 305 303 300 297 293 289 285 282 280 278 276 274 273 271 270 268 267 265 264 263 262 261 260 259 258 258 258 258 258 257 256 255 255 254 254 254 254 254 254 254 253
312 312 312 312 312 312 312 311 311 311 310 309 308 307 304 301 297 293 288 284 281 279 277 276 274 273 271 269 268 266 265 264 263 262 261 260 259 258 258 258 258 257 256 255 254 253 253 253 253 253 253 253
313 313 313 313 313 312 312 312 312 312 311 311 310 310 309 306 303 299 294 290 285 282 280 278 277 275 274 272 271 269 267 266 264 263 262 261 260 260 259 259 259 258 258 257 255 254 253 252 252 252 252 252
312 312 312 312 312 312 312 312 312 312 311 311 311 310 310 309 307 304 300 295 290 286 282 280 278 276 275 274 273 272 270 269 267 265 264 263 261 261 260 260 260 260 259 258 257 256 254 253 252 252 252 252
311 312 312 312 311 311 312 312 311 311 311 311 311 310 310 309 308 306 303 299 295 290 287 283 281 279 277 275 274 273 271 270 269 268 267 265 263 262 261 261 261 261 261 260 259 258 257 255 254 253 252 252
310 310 311 311 311 311 311 311 311 311 311 311 311 311 311 310 309 307 304 301 297 294 290 287 285 282 280 278 277 275 273 271 270 269 268 267 266 264 263 261 261 261 261 261 260 259 258 257 256 255 254 253
309 309 309 309 310 310 310 311 311 311 311 312 312 311 311 310 309 307 304 301 298 294 291 289 286 285 283 281 279 278 276 273 271 269 268 267 266 265 264 263 262 261 261 261 261 260 259 258 257 256 255 254
307 308 308 309 309 310 310 310 310 311 311 311 311 311 310 310 309 307 304 301 298 294 292 289 287 286 284 282 281 279 277 276 274 272 270 268 266 265 264 263 262 262 261 261 261 261 260 259 258 257 256 255